This is the latest recevied weather packets stored in our database for station/object N4BBA. If no packets are shown the sender has not sent any weather packets the latest 10 day(s).
| Time | Temp. | Humidity | Pressure | Rain* | Wind** | Luminosity | Snow |
|---|---|---|---|---|---|---|---|
| 1777557285 | 15.56° C | 97% | 1008.7 hPa | 0 mm | - | 234 W/m² | - |
| 1777556981 | 15.56° C | 97% | 1008.8 hPa | 0 mm | - | 271 W/m² | - |
| 1777556677 | 15° C | 97% | 1008.7 hPa | 0 mm | - | 242 W/m² | - |
| 1777556373 | 15° C | 98% | 1008.6 hPa | 0 mm | - | 196 W/m² | - |
| 1777556068 | 15° C | 98% | 1008.6 hPa | 0 mm | - | 162 W/m² | - |
| 1777555768 | 15° C | 98% | 1008.8 hPa | 0 mm | - | 152 W/m² | - |
| 1777555465 | 15° C | 98% | 1008.4 hPa | 0 mm | - | 135 W/m² | - |
| 1777555161 | 15° C | 98% | 1008.5 hPa | 0 mm | - | 129 W/m² | - |
| 1777554859 | 15° C | 98% | 1008.3 hPa | 0 mm | - | 134 W/m² | - |
| 1777554556 | 15° C | 98% | 1008.2 hPa | 0 mm | - | 123 W/m² | - |
| 1777554252 | 15° C | 98% | 1008.4 hPa | 0 mm | - | 118 W/m² | - |
| 1777553949 | 15° C | 98% | 1008.5 hPa | 0 mm | - | 124 W/m² | - |
| 1777553645 | 15° C | 98% | 1008.8 hPa | 0 mm | - | 115 W/m² | - |
| 1777553342 | 15° C | 98% | 1008.7 hPa | 0 mm | - | 111 W/m² | - |
| 1777553038 | 15° C | 98% | 1008.6 hPa | 0 mm | - | 86 W/m² | - |
| 1777552733 | 15° C | 98% | 1008.7 hPa | 0 mm | - | 82 W/m² | - |
| 1777552430 | 15° C | 98% | 1008.8 hPa | 0 mm | - | 88 W/m² | - |
| 1777552126 | 15° C | 98% | 1008.7 hPa | 0 mm | - | 79 W/m² | - |
| 1777551824 | 15° C | 98% | 1008.7 hPa | 0 mm | - | 79 W/m² | - |
| 1777551521 | 15° C | 98% | 1008.9 hPa | 0 mm | - | 73 W/m² | - |
| 1777551217 | 15° C | 98% | 1009 hPa | 0 mm | - | 60 W/m² | - |
| 1777550914 | 15° C | 98% | 1008.7 hPa | 0 mm | - | 52 W/m² | - |
| 1777550611 | 15° C | 98% | 1008.8 hPa | 1.78 mm | - | 54 W/m² | - |
| 1777550307 | 15° C | 98% | 1008.8 hPa | 1.78 mm | - | 45 W/m² | - |
| 1777550003 | 15° C | 98% | 1008.8 hPa | 0 mm | - | 37 W/m² | - |
* Rain latest hour (hover to see other rain measurements)
** Current wind speed in m/s (hover to see current wind gust speed)